744  
ASUS43 KDMX 141206  
RWRIA  
 
WEATHER ROUNDUP FOR IOWA  
NATIONAL WEATHER SERVICE DES MOINES IA  
700 AM CDT FRI MAY 14 2021  
 
NOTE: "FAIR" INDICATES FEW OR NO CLOUDS BELOW 12,000 FEET WITH NO  
SIGNIFICANT WEATHER AND/OR S TO VISIBILITY
.  
 
* - THESE STATIONS ARE NOT NWS STATIONS...THUS NOT UNDER NWS  
QUALITY CONTROL. THEY ALSO DO NOT REPORT WEATHER SUCH  
AS PRECIPITATION OR FOG.
 
 
IAZ001>003-012>014-020>022-031>034-043>046-141300-  
NORTHWEST IOWA  
 
CITY SKY/WX TMP DP RH WIND PRES REMARKS
 
CARROLL * CLOUDY 50 43 76 SW12 30.24R  
CHEROKEE * CLOUDY 51 43 74 S9 30.18S  
DENISON * CLOUDY 50 43 76 S17G24 30.22S  
LE MARS * CLOUDY 55 37 50 S17 30.12S  
MAURICE * CLOUDY 52 41 66 S8 30.14R  
SHELDON * CLOUDY 48 43 81 SE10 30.14F  
SIOUX CITY CLOUDY 53 39 59 SE15G26 30.14S  
6HR MIN TEMP: 53; 6HR MAX TEMP: 57; 6HR PCP: TRACE;  
 
SPENCER CLOUDY 53 33 46 S12 30.18S  
6HR MIN TEMP: 50; 6HR MAX TEMP: 53;  
 
STORM LAKE * CLOUDY 52 39 62 S17 30.19S  

 
 
IAZ055>058-069>071-079>083-090>094-141300-  
SOUTHWEST IOWA  
 
CITY SKY/WX TMP DP RH WIND PRES REMARKS
 
ATLANTIC * CLOUDY 52 39 62 SE12 30.23R  
AUDUBON * LGT RAIN 50 39 66 W5 30.26R  
CLARINDA * CLOUDY 54 34 47 SE7 30.24R  
COUNCIL BLFS * CLOUDY 52 32 46 SE9 30.18S  
CRESTON * CLOUDY 50 36 57 SE8 30.26R  
HARLAN * CLOUDY 50 41 71 SE3 30.22F  
LAMONI MOCLDY 49 34 56 S7 30.27R  
6HR MIN TEMP: 49; 6HR MAX TEMP: 52;  
 
RED OAK * CLOUDY 55 34 44 SE6 30.22R  
SHENANDOAH * CLOUDY 55 34 44 SE10 30.19S  

 
 
IAZ047>049-059>061-072>074-084-141300-  
CENTRAL IOWA  
 
CITY SKY/WX TMP DP RH WIND PRES REMARKS
 
AMES CLOUDY 47 36 65 SE5 30.26R  
6HR MIN TEMP: 43; 6HR MAX TEMP: 47;  
 
ANKENY * PTSUNNY 50 34 53 S5 30.28R  
BOONE * CLOUDY 52 34 50 S8 30.27R  
CHARITON * CLOUDY 50 37 62 S8 30.27R  
DES MOINES CLOUDY 50 33 52 S7 30.27R  
6HR MIN TEMP: 49; 6HR MAX TEMP: 52;  
 
GRINNELL* PTSUNNY 49 36 60 S8 30.30R  
KNOXVILLE * PTSUNNY 50 34 53 S8 30.28R  
MARSHALLTOWN PTSUNNY 48 34 58 SE6 30.27R  
6HR MIN TEMP: 40; 6HR MAX TEMP: 50;  
 
NEWTON * SUNNY 46 37 71 SE8 30.27S  
PELLA * PTSUNNY 48 35 60 SE5 30.30R  
PERRY * FAIR 50 32 50 S10 30.24S  

 
 
IAZ004>006-015-016-023>025-035-036-141300-  
NORTH CENTRAL IOWA  
 
CITY SKY/WX TMP DP RH WIND PRES REMARKS
 
ALGONA * PTSUNNY 50 32 50 S15 30.20S  
CLARION * CLOUDY 52 30 43 S15 30.24S  
ESTHERVILLE PTSUNNY 47 31 53 S12 30.19R  
6HR MIN TEMP: 47; 6HR MAX TEMP: 50;  
 
FORT DODGE * CLOUDY 52 32 46 S6 30.24R  
MASON CITY MOSUNNY 45 32 60 S8 30.26R  
6HR MIN TEMP: 39; 6HR MAX TEMP: 45;  
 
FOREST CITY * FAIR 50 32 50 S7 30.24R  
WEBSTER CITY * CLOUDY 50 34 53 SE13 30.23S  

 
 
IAZ007>011-017>019-026>030-037>042-050>054-066-141300-  
NORTHEAST IOWA  
 
CITY SKY/WX TMP DP RH WIND PRES REMARKS
 
CEDAR RAPIDS MOSUNNY 45 33 63 SE6 30.30R  
6HR MIN TEMP: 41; 6HR MAX TEMP: 48;  
 
CHARLES CITY * N/A N/A N/A N/A MISG N/A  
CLINTON * SUNNY 44 40 85 E5 30.34R  
DECORAH * N/A 50 28 43 SE5 30.27R  
DUBUQUE SUNNY 44 33 65 CALM 30.32R  
6HR MIN TEMP: 40; 6HR MAX TEMP: 47;  
 
MONTICELLO * SUNNY 41 41 100 CALM 30.31R  
OELWEIN * SUNNY 46 32 57 S8 30.29S  
WATERLOO SUNNY 44 37 76 CALM 30.28R  
6HR MIN TEMP: 40; 6HR MAX TEMP: 50;  
 

 
 
IAZ064-065-067-068-078-141300-  
EAST CENTRAL IOWA  
 
CITY SKY/WX TMP DP RH WIND PRES REMARKS
 
DAVENPORT SUNNY 47 35 63 SE3 30.35R  
6HR MIN TEMP: 43; 6HR MAX TEMP: 52;  
 
IOWA CITY MOSUNNY 45 36 70 CALM 30.33R  
6HR MIN TEMP: 41; 6HR MAX TEMP: 46;  
 
MT. PLEASANT * PTSUNNY 48 39 71 CALM 30.33R  
MUSCATINE * MOSUNNY 45 41 87 CALM 30.34R  
QUAD CITIES SUNNY 42 36 79 CALM 30.33R  
6HR MIN TEMP: 37; 6HR MAX TEMP: 44;  
 

 
 
IAZ062-063-075>077-085>089-095>099-141300-  
SOUTHEAST IOWA  
 
CITY SKY/WX TMP DP RH WIND PRES REMARKS
 
BURLINGTON MOSUNNY 49 36 61 CALM 30.33R  
6HR MIN TEMP: 44; 6HR MAX TEMP: 49;  
 
FAIRFIELD * SUNNY 50 36 57 S7 30.31R  
FORT MADISON * N/A 50 39 66 S5 30.34R  
KEOKUK * PTSUNNY 46 45 93 CALM 30.33R  
OSKALOOSA * FAIR 48 37 63 S6 30.30S  
OTTUMWA PTSUNNY 49 34 56 S8 30.30R  
6HR MIN TEMP: 45; 6HR MAX TEMP: 50;  
 
WASHINGTON * MOSUNNY 48 43 81 S5 30.31R  

 
 
ABBREVIATIONS USED IN REMARKS  
TC - TEMPERATURES IN CELSIUS  
WCI - WIND CHILL INDEX  
HX - HEAT INDEX  
VSB - VISIBILITY  

 
 
 
 
CLICK HERE TO GO TO PREVIOUS BULLETINS.

The Nexlab IA Page Main Text Page